{"data":{"norad_id":55382,"intl_designator":"2023-013BD","name":"STARLINK-5576","alt_names":[],"object_type":"PAYLOAD","status":"ACTIVE","operator":null,"country":"US","launch_date":"2023-01-26","launch_site_code":"AFETR","launch_vehicle":null,"mission":null,"orbit_class":"UNKNOWN","rcs_meters":null,"size_class":null,"mass_kg":null,"dimensions":null,"purposes":["comms"],"wikipedia_slug":null,"has_3d_model":false,"image_url":null,"decayed_at":null,"tle_current":{"epoch":"2026-05-24T16:30:01.743552Z","epoch_age_seconds":112781,"freshness":"FRESH","line1":"1 55382U 23013BD  26144.68752018 -.00002074  00000+0 -65834-4 0  9990","line2":"2 55382  43.0039 249.1235 0001751 269.8155  90.2496 15.27583760183129","mean_motion":15.2758376,"eccentricity":0.0001751,"inclination_deg":43.0039,"raan_deg":249.1235,"arg_perigee_deg":269.8155,"mean_anomaly_deg":90.2496,"bstar":-6.5834e-5,"rev_number":18312,"period_min":94.266516685147,"perigee_km":481.83644555609,"apogee_km":484.2392289841,"semimajor_km":6861.1748372701,"source":"CELESTRAK","updated_at":"2026-05-25T13:38:17.770684Z"}}}